Weather History for Cincinnati, OH

Change the Weather History Date:

Saturday, February 9, 2013

  Actual Average Record
Temperature  
Mean Temperature 32 °F -  
Max Temperature 42 °F 38 °F 69 °F (2001)
Min Temperature 23 °F 19 °F 2 °F (1979)
Degree Days  
Heating Degree Days 32    
Moisture  
Dew Point 20 °F    
Average Humidity 65    
Maximum Humidity 88    
Minimum Humidity 37    
Precipitation  
Precipitation 0.00 in - - ()
Sea Level Pressure  
Sea Level Pressure 30.38 in    
Wind  
Wind Speed 5 mph (NE)    
Max Wind Speed 12 mph    
Max Gust Speed -    
Visibility 10 miles    
Events      
Averages and records for this station are not official NWS values.
T = Trace of Precipitation, MM = Missing Value Source: NWS Daily Summary

Daily Weather History Graph

Daily Weather History Graph

Search for Another Location

Airport:

Trip Planner

Search our weather history database for the weather conditions in past years. The results will help you decide how hot, cold, wet, or windy it might be!

Date:

Astronomy

Feb. 09, 2013 Rise Set
Actual Time 7:35 AM EST 6:08 PM EST
Civil Twilight 7:08 AM EST 6:36 PM EST
Nautical Twilight 6:36 AM EST 7:07 PM EST
Astronomical Twilight 6:05 AM EST 7:38 PM EST
Moon 6:47 AM EST (2/9) 5:49 PM EST (2/9)
Length of Visible Light 11h 27m
Length of Day
10h 32m
Waning Crescent, 0% of the Moon is Illuminated
Feb 9
Waning Crescent
Feb 10
New
Feb 17
First Quarter
Feb 25
Full
Mar 4
Last Quarter

Hourly Weather History & Observations

Time (EST) Temp. Windchill Dew Point Humidity Pressure Visibility Wind Dir Wind Speed Gust Speed Precip Events Conditions
12:53 AM 33.1 °F 26.9 °F 21.9 °F 64% 30.38 in 10.0 mi NNE 6.9 mph - N/A   Overcast
1:53 AM 32.0 °F 27.5 °F 21.9 °F 66% 30.38 in 10.0 mi NNE 4.6 mph - N/A   Overcast
2:00 AM 32.0 °F 23.0 °F 21.2 °F 64% 30.36 in 10.0 mi NE 11.5 mph - N/A   Overcast
2:53 AM 28.0 °F 20.0 °F 19.0 °F 69% 30.41 in 10.0 mi NNE 8.1 mph - N/A   Partly Cloudy
3:53 AM 27.0 °F 21.6 °F 17.1 °F 66% 30.41 in 10.0 mi North 4.6 mph - N/A   Clear
4:53 AM 25.0 °F 19.3 °F 18.0 °F 75% 30.40 in 10.0 mi ENE 4.6 mph - N/A   Clear
5:53 AM 23.0 °F - 18.0 °F 81% 30.43 in 10.0 mi Calm Calm - N/A   Clear
6:53 AM 23.0 °F - 19.0 °F 85% 30.44 in 10.0 mi Calm Calm - N/A   Clear
7:53 AM 23.0 °F - 19.9 °F 88% 30.46 in 10.0 mi Calm Calm - N/A   Clear
8:53 AM 27.0 °F - 21.0 °F 78% 30.47 in 10.0 mi Calm Calm - N/A   Clear
9:53 AM 30.0 °F 25.2 °F 19.0 °F 64% 30.47 in 10.0 mi East 4.6 mph - N/A   Clear
10:53 AM 33.1 °F 28.7 °F 19.0 °F 56% 30.45 in 10.0 mi NNE 4.6 mph - N/A   Clear
11:53 AM 34.0 °F 29.8 °F 19.0 °F 54% 30.44 in 10.0 mi NE 4.6 mph - N/A   Clear
12:53 PM 37.0 °F 33.3 °F 19.0 °F 48% 30.42 in 10.0 mi Variable 4.6 mph - N/A   Clear
1:53 PM 39.0 °F 35.7 °F 18.0 °F 43% 30.39 in 10.0 mi Variable 4.6 mph - N/A   Clear
2:53 PM 42.1 °F - 18.0 °F 38% 30.37 in 10.0 mi Calm Calm - N/A   Clear
3:53 PM 42.1 °F 39.2 °F 17.1 °F 37% 30.35 in 10.0 mi East 4.6 mph - N/A   Clear
4:53 PM 41.0 °F 38.0 °F 17.1 °F 38% 30.34 in 10.0 mi ENE 4.6 mph - N/A   Clear
5:53 PM 39.9 °F 35.8 °F 17.1 °F 40% 30.33 in 10.0 mi ESE 5.8 mph - N/A   Clear
6:53 PM 35.1 °F 31.0 °F 19.9 °F 54% 30.33 in 10.0 mi ENE 4.6 mph - N/A   Clear
7:53 PM 28.0 °F 22.8 °F 21.9 °F 78% 30.33 in 10.0 mi ENE 4.6 mph - N/A   Clear
8:53 PM 27.0 °F 21.6 °F 21.0 °F 78% 30.31 in 10.0 mi NE 4.6 mph - N/A   Clear
9:53 PM 28.0 °F - 23.0 °F 81% 30.30 in 10.0 mi Calm Calm - N/A   Clear
10:53 PM 26.1 °F - 21.9 °F 84% 30.29 in 10.0 mi Calm Calm - N/A   Clear
11:53 PM 26.1 °F - 23.0 °F 88% 30.27 in 10.0 mi Calm Calm - N/A   Clear